Hourly Data Report for August 28, 2006

TORONTO CITY
ONTARIO

43°40'00.000" N
79°24'00.000" W
112.50 m
6158355
71508
XTO

Download Data

Hourly Data (August 2006)
Hourly Data Report for August 28, 2006
TIME
LST
Temp Definition
°C
Dew Point Definition
°C
Rel Hum Definition
%
Precip. Amount Definition
mm

Wind Dir Definition
10's deg

Wind Spd Definition
km/h
Visibility Definition
km
Stn Press Definition
kPa
Hmdx Definition


Wind Chill Definition


Weather Definition


00:00 20.7 17.8 83   LegendMM LegendMM   99.98 27   LegendNANA
01:00 20.3 18.0 87   LegendMM LegendMM   100.00 26   LegendNANA
02:00 20.4 18.4 88   LegendMM LegendMM   100.04 27   LegendNANA
03:00 19.8 18.2 90   LegendMM LegendMM   100.04     LegendNANA
04:00 19.7 18.2 91   LegendMM LegendMM   100.03     LegendNANA
05:00 19.1 17.8 92   LegendMM LegendMM   100.06     LegendNANA
06:00 18.8 17.8 94   LegendMM LegendMM   100.08     LegendNANA
07:00 19.3 17.7 90   LegendMM LegendMM   100.12     LegendNANA
08:00 20.7 16.8 78   LegendMM LegendMM   100.14 26   LegendNANA
09:00 21.3 16.1 72   LegendMM LegendMM   100.14 26   LegendNANA
10:00 22.0 15.6 67   LegendMM LegendMM   100.11 26   LegendNANA
11:00 21.8 15.3 67   LegendMM LegendMM   100.10 26   LegendNANA
12:00 23.1 15.2 61   LegendMM LegendMM   100.05 27   LegendNANA
13:00 23.5 14.7 58   LegendMM LegendMM   100.03 27   LegendNANA
14:00 23.1 15.3 61   LegendMM LegendMM   100.01 27   LegendNANA
15:00 23.4 15.6 62   LegendMM LegendMM   99.94 28   LegendNANA
16:00 22.0 16.5 71   LegendMM LegendMM   99.90 27   LegendNANA
17:00 21.6 15.8 70   LegendMM LegendMM   99.87 26   LegendNANA
18:00 21.4 15.8 70   LegendMM LegendMM   99.87 26   LegendNANA
19:00 21.3 15.3 69   LegendMM LegendMM   99.85 25   LegendNANA
20:00 21.1 15.9 72   LegendMM LegendMM   99.86 26   LegendNANA
21:00 20.6 16.0 75   LegendMM LegendMM   99.86 25   LegendNANA
22:00 20.1 15.6 75   LegendMM LegendMM   99.81     LegendNANA
23:00 19.2 16.7 85   LegendMM LegendMM   99.83     LegendNANA

Notes on Data Quality.

Legend

  • E = Estimated
  • M = Missing
  • NA = Not Available*
  • [empty] = Indicates an unobserved value
Date modified: